Dewpoint
71 70 70 70 73 71 70 67 56 61 60 55 55 58 57 60 63 62 61 64 63 65 65 65 64 65 65 65 64 64 65 59 63 53 51 66 70 70 72 72 73 72 73 74 75 75 75 76 76 76 76 76 77 77 77 77 77 77 76 76 76 76 76 76 76 76 76 76 75 75 75 75 75 76 76 76 75 75 75 74 74 74 74 74 74 75 75 76 75 75 74 75 75 75 74 75 75
70 70 70 70 70 71 64 68 59 57 58 55 55 59 59 62 61 61 60 63 65 66 64 65 65 63 66 64 64 63 64 66 67 66 68 69 70 71 72 72 72 72 73 74 75 75 76 76 77 77 76 76 76 76 76 77 77 77 76 76 76 76 76 76 76 76 76 76 75 75 75 75 76 76 76 75 75 75 75 75 74 74 74 74 75 75 75 75 75 75 74 74 74 74 74 74 74
70 69 70 71 69 69 69 67 56 56 54 51 53 60 63 61 61 61 63 64 65 66 64 64 66 67 62 63 65 63 61 66 66 67 68 70 69 71 72 72 72 72 73 74 75 75 76 76 77 77 77 77 77 77 76 77 77 77 76 76 76 76 76 76 77 76 76 76 75 75 76 76 76 76 75 75 75 75 74 74 74 74 74 74 75 75 75 75 75 75 74 74 74 74 74 74 74
69 69 68 69 65 69 63 62 59 56 53 53 54 60 61 60 61 62 64 63 64 63 62 63 67 63 65 62 63 65 64 64 67 67 67 68 68 71 72 72 73 73 74 74 75 75 76 76 77 77 77 77 77 77 77 77 77 77 76 76 76 76 76 76 77 76 76 76 76 76 76 76 76 76 75 75 75 75 75 75 75 74 74 74 74 75 75 75 75 75 75 74 74 74 74 74 74
68 69 69 68 68 62 62 61 59 57 53 56 53 61 61 63 61 64 64 65 64 64 63 64 61 63 65 64 63 62 63 66 66 67 67 69 71 71 72 72 72 73 73 74 75 75 76 77 77 77 77 77 77 77 76 77 77 76 76 76 76 76 76 77 77 76 76 76 75 75 75 75 76 76 76 75 75 74 74 75 75 74 74 74 74 74 75 75 75 75 74 74 74 74 74 74 74
69 68 70 73 64 69 65 59 56 56 56 62 58 61 61 64 62 61 62 64 64 64 63 62 61 62 63 63 64 64 65 63 66 67 68 70 71 72 72 72 72 72 73 74 75 75 76 77 77 77 77 77 77 77 76 77 77 76 76 76 76 77 77 76 76 77 77 76 75 75 75 76 76 76 76 75 74 74 74 74 74 74 74 74 73 74 75 75 75 75 75 75 74 74 74 74 74
69 72 72 71 68 68 59 58 57 57 57 58 57 63 64 63 62 62 63 62 64 65 65 62 62 62 61 63 64 65 66 66 66 67 69 71 71 71 71 71 71 72 73 74 74 75 76 77 77 77 77 77 77 77 77 77 77 76 76 77 77 77 76 76 77 77 76 76 75 75 75 76 76 76 75 75 75 75 74 74 74 74 74 74 74 74 74 75 75 75 75 75 74 74 74 74 73
72 68 67 64 61 63 59 59 58 59 58 59 59 60 62 62 62 63 61 59 60 61 62 64 61 61 61 64 63 66 66 68 68 70 71 70 71 71 71 71 71 72 73 74 75 75 77 77 77 77 77 76 77 77 77 77 77 76 77 77 77 76 76 76 77 76 76 76 75 75 75 75 76 76 76 76 75 75 74 74 74 74 74 74 74 74 74 75 75 75 75 75 74 74 74 74 73
71 69 68 64 60 61 58 56 56 57 57 58 59 62 65 66 64 64 62 61 61 62 62 60 61 60 62 63 63 66 67 68 69 71 70 70 70 70 70 70 70 72 73 74 75 76 76 77 77 77 77 77 77 77 77 77 77 77 77 77 77 76 76 76 76 76 75 75 75 75 75 75 76 76 75 75 75 75 75 75 74 74 74 74 74 73 74 75 75 75 74 75 74 74 74 74 74
71 68 64 62 60 56 55 52 51 54 57 61 60 63 66 66 65 63 62 59 61 61 60 59 61 61 63 63 64 66 67 69 69 69 69 70 70 70 69 70 71 72 73 74 75 76 76 78 77 77 76 77 77 77 77 77 77 77 77 77 76 76 76 76 75 75 75 75 75 75 75 75 75 75 76 76 76 75 75 75 75 75 74 74 74 74 75 75 75 75 74 74 74 74 74 74 74
66 67 67 61 58 54 52 52 53 59 58 61 63 64 64 65 65 63 63 60 60 60 61 62 62 62 63 64 65 67 68 68 67 67 69 69 69 69 69 69 71 73 73 74 75 76 76 76 77 77 77 76 76 77 77 77 77 77 77 77 76 76 76 76 75 75 75 75 75 75 75 75 75 75 75 75 75 75 76 76 76 75 75 75 75 75 75 75 75 74 74 74 74 74 73 74 74
64 64 65 58 56 53 54 53 54 55 57 58 59 61 63 64 65 62 61 60 59 60 60 61 61 64 63 63 65 67 67 67 67 68 69 69 68 68 68 70 72 73 74 74 75 76 76 77 76 77 77 76 76 77 77 77 77 77 77 77 76 76 76 75 75 75 75 75 75 75 75 75 75 75 75 75 75 75 76 76 76 75 75 75 75 75 75 75 75 75 74 75 74 74 74 74 73
65 64 60 57 55 56 56 55 55 54 55 56 58 62 63 63 64 64 63 60 59 59 59 61 63 64 62 63 66 66 66 67 67 68 69 68 67 68 70 72 74 73 74 74 75 75 76 76 76 76 75 76 76 77 77 77 77 77 77 77 76 76 76 75 75 75 75 76 76 75 75 75 75 75 75 74 74 75 75 74 75 75 76 76 76 76 76 75 75 75 75 75 74 74 74 74 74
65 63 61 56 58 57 56 56 54 52 52 56 59 64 61 61 62 65 65 62 58 58 61 63 63 64 63 64 65 64 65 67 68 68 68 67 68 69 71 73 73 73 73 74 75 76 76 75 75 75 75 75 75 77 77 77 77 77 77 77 76 76 76 76 75 75 76 76 75 75 75 75 75 75 74 74 74 74 74 75 74 75 75 74 74 74 75 75 75 74 74 74 74 74 74 74 74
65 65 61 58 56 55 55 52 52 49 50 56 57 59 60 61 62 62 63 60 57 61 63 63 64 63 62 62 63 64 65 66 68 68 67 68 68 69 72 73 73 73 73 74 75 75 75 75 75 75 75 75 76 75 76 76 77 77 77 77 77 76 76 76 76 76 76 76 75 75 75 75 75 75 75 75 75 75 74 74 74 75 75 74 75 75 75 75 75 75 75 74 74 74 74 73 74
66 62 60 56 55 55 53 53 52 51 50 55 57 58 62 62 61 60 60 62 60 62 62 61 64 61 64 63 64 65 65 66 67 67 68 68 69 71 72 72 72 72 73 74 75 75 75 75 75 75 75 76 76 75 76 76 76 77 77 77 76 76 76 76 76 76 76 76 75 75 75 76 75 75 75 75 75 75 75 74 74 74 74 74 75 75 75 75 74 74 74 75 75 74 74 74 74
65 62 58 55 54 53 53 52 48 46 51 54 57 59 57 57 58 59 59 60 59 60 61 62 62 64 64 63 65 65 65 66 67 68 68 68 70 70 71 71 72 71 72 73 74 74 75 74 75 75 75 75 75 76 76 76 76 77 77 77 77 76 76 76 76 76 76 76 75 75 75 76 75 75 75 75 75 76 75 75 74 74 74 74 74 74 74 74 74 74 74 75 75 75 74 74 74
63 59 57 56 55 54 54 53 49 49 51 55 57 57 55 55 56 57 57 59 59 60 60 61 63 63 64 65 66 66 65 66 67 67 67 68 69 69 69 70 70 70 71 72 73 74 74 74 74 75 75 75 75 76 76 76 76 76 76 76 76 76 76 77 76 76 76 75 76 75 75 76 75 74 75 76 76 75 75 75 75 75 75 74 74 74 74 74 74 74 74 74 73 74 75 75 74
61 57 56 55 54 55 56 54 53 50 50 53 55 55 54 54 55 55 57 57 58 59 60 61 61 62 64 65 66 66 65 66 67 67 67 68 68 68 69 69 69 70 70 71 72 73 74 74 74 75 75 75 75 76 76 76 76 76 76 76 76 77 77 77 76 77 76 76 76 76 77 76 75 75 75 76 77 76 76 75 75 73 74 75 74 74 74 75 74 75 74 74 73 75 76 74 74
61 54 53 54 54 54 54 53 52 51 51 51 52 53 53 53 54 53 55 56 58 59 59 60 60 61 63 64 65 65 65 66 66 66 67 67 67 68 68 68 69 69 70 70 71 73 73 74 74 74 75 75 75 75 76 76 76 76 76 76 76 76 76 77 76 76 76 75 75 75 76 75 75 75 77 76 76 76 75 75 75 75 75 76 75 75 75 74 74 74 75 74 76 78 74 75 72
56 54 51 52 54 52 52 53 52 50 50 50 51 52 50 51 52 51 51 55 57 59 60 60 60 61 62 63 64 64 65 65 66 66 66 67 67 68 68 68 69 69 70 70 71 72 73 74 74 74 74 74 75 75 75 75 76 75 75 76 75 76 76 75 75 75 76 75 75 75 76 76 75 75 75 75 75 75 74 75 75 75 76 75 76 75 76 76 76 75 75 77 75 76 75 73 71
54 53 53 52 53 52 53 52 52 51 49 49 50 50 51 51 50 50 53 54 56 59 60 60 61 62 62 63 64 64 64 65 66 66 66 66 66 67 68 68 69 69 70 70 71 72 73 73 73 73 73 74 74 75 75 76 76 75 75 75 75 75 75 75 75 76 75 75 75 75 76 75 75 75 75 75 75 75 74 74 75 75 75 75 77 75 75 75 75 75 75 75 75 74 74 73 72
54 52 50 52 52 50 51 52 51 50 49 48 48 50 50 50 50 51 53 55 57 60 61 61 61 62 62 63 64 64 64 65 65 65 66 65 66 66 67 68 69 69 69 70 70 71 72 72 72 72 72 73 74 74 75 76 75 75 75 75 75 75 75 75 75 75 75 75 75 76 75 74 75 75 75 74 74 75 74 74 75 75 75 75 77 75 75 75 75 75 75 75 74 74 73 72 72
53 50 48 47 50 50 50 51 50 48 47 47 48 49 48 49 49 51 54 55 59 61 61 61 61 62 63 63 63 63 64 65 65 65 66 65 65 66 67 67 68 69 69 69 69 70 71 70 71 71 71 73 73 74 74 75 75 75 75 76 75 75 75 75 75 75 75 76 75 75 76 74 74 74 75 74 74 74 74 74 75 75 75 75 76 75 75 75 75 75 75 75 74 74 72 71 72
51 50 49 46 47 49 50 50 48 48 47 48 48 48 48 49 50 51 52 56 60 61 61 61 61 62 62 63 63 63 64 64 65 65 66 66 66 66 67 67 67 68 68 68 69 69 70 70 70 70 71 72 72 74 74 74 74 74 74 75 74 76 75 75 75 75 75 76 76 75 76 74 73 74 74 74 74 74 74 74 75 74 74 75 76 75 75 75 74 75 75 75 74 73 73 71 71
49 50 49 47 45 50 50 48 47 48 48 48 47 47 48 50 51 50 51 58 60 61 61 61 61 61 62 62 62 63 63 64 64 64 65 65 66 66 66 66 67 67 67 68 68 68 69 69 69 69 71 71 72 73 73 73 74 73 74 74 74 76 74 74 74 75 75 75 76 75 75 73 73 73 73 74 74 74 75 74 74 75 74 75 76 74 76 75 75 74 74 74 74 73 72 72 72
48 48 48 46 45 45 48 47 45 46 46 48 47 47 47 48 49 49 53 58 60 60 61 61 61 61 61 61 62 62 63 63 64 64 65 65 66 66 66 67 67 66 68 67 68 68 69 69 69 69 71 72 71 72 73 73 73 72 73 73 73 74 74 74 74 74 75 75 76 76 75 75 73 73 73 74 74 74 74 74 74 75 75 74 74 74 75 75 74 73 74 73 73 72 72 72 71
47 45 43 45 45 45 45 45 46 45 45 47 47 47 47 47 50 50 56 58 59 59 59 60 60 61 61 61 61 62 63 63 64 64 64 65 65 66 66 67 67 67 68 68 68 68 68 69 69 69 71 71 71 72 73 72 72 72 73 73 72 74 74 74 74 74 75 74 75 76 75 75 75 72 73 74 74 74 74 74 74 73 73 74 74 73 74 76 74 73 74 73 72 72 72 72 72
44 42 39 38 42 44 45 44 45 45 45 46 46 44 43 45 49 52 57 58 58 58 58 59 60 60 60 60 60 61 62 63 64 64 64 65 66 66 66 67 68 68 69 69 69 69 69 70 69 69 71 71 71 72 72 71 71 71 72 72 72 74 73 73 74 74 74 75 75 75 75 75 76 73 74 75 76 74 74 74 74 73 73 74 74 73 75 75 75 75 75 75 73 73 72 71 72
42 41 39 37 36 38 43 43 45 45 45 46 45 42 43 42 49 54 57 57 57 57 57 58 58 59 59 59 59 61 61 62 62 63 64 64 65 66 66 68 68 68 69 70 70 70 70 71 70 69 71 71 72 71 72 72 70 72 73 72 73 74 73 73 74 74 74 74 74 74 75 76 76 75 74 74 75 75 74 74 74 76 75 75 75 75 74 73 73 73 73 74 76 74 73 72 72
37 39 39 37 35 34 38 42 43 45 46 46 44 40 41 42 50 56 57 57 57 56 57 57 57 58 58 59 59 60 61 62 62 63 63 64 64 65 66 68 68 69 70 70 70 70 71 71 70 69 72 71 73 71 72 72 71 72 72 72 72 73 73 73 73 74 74 74 74 74 74 76 76 76 75 74 74 74 74 74 73 73 75 77 76 75 73 74 74 73 74 73 71 71 69 68 70
35 33 33 32 34 34 36 41 42 43 45 46 43 41 40 44 51 56 57 57 57 56 56 56 57 57 57 58 58 59 60 61 62 63 63 63 64 64 66 67 68 69 69 70 70 71 70 71 71 70 71 71 73 72 72 72 71 72 72 74 73 73 74 72 73 73 73 74 74 74 74 75 75 76 76 75 75 75 75 75 74 74 74 76 75 76 75 74 74 74 75 72 66 64 68 63 66
32 31 31 30 33 33 34 37 39 42 44 45 42 39 40 48 53 55 56 57 57 56 56 56 57 56 57 57 58 59 59 60 61 62 63 63 63 64 65 67 68 69 69 69 69 70 70 71 71 70 71 71 72 72 72 72 72 72 72 72 72 72 73 72 73 73 73 74 74 73 74 75 74 75 76 76 75 75 75 75 76 75 77 76 75 75 74 76 74 74 73 74 66 64 59 59 62
30 31 31 31 32 35 33 36 37 38 37 40 42 39 37 47 52 55 56 56 56 56 56 56 57 56 57 57 57 58 58 59 60 61 62 62 62 63 64 68 68 69 69 69 69 70 69 70 70 70 71 72 72 72 72 71 71 72 72 72 73 72 72 72 72 72 72 74 74 74 74 75 74 75 75 75 75 75 74 74 75 76 76 75 75 74 73 73 73 74 72 71 70 63 58 60 63
28 31 30 29 30 32 34 34 36 36 36 35 38 39 37 48 51 54 55 56 56 56 56 56 56 57 57 57 57 58 58 59 60 61 61 62 61 62 64 66 67 68 69 69 69 69 69 70 71 71 71 71 72 72 71 72 71 72 71 71 72 72 72 72 71 71 72 73 73 74 74 75 75 75 75 75 75 76 73 73 73 76 76 76 75 74 73 73 74 72 71 66 70 62 58 62 64
29 30 29 29 28 29 28 33 36 35 33 33 33 37 41 47 50 52 53 55 55 56 56 57 56 57 57 57 57 57 57 58 59 60 61 61 61 62 62 65 67 67 68 69 70 68 69 70 70 71 71 70 71 72 71 71 71 71 70 70 71 71 71 72 71 71 71 73 73 74 75 75 75 75 75 75 75 75 73 73 73 76 76 76 74 73 72 73 73 73 72 66 66 68 67 64 65
27 28 29 28 28 28 29 28 29 35 31 31 32 33 43 46 49 50 52 53 53 54 55 56 56 56 57 57 57 57 58 58 59 60 60 61 61 62 62 64 66 67 67 69 69 68 69 69 70 71 71 71 71 71 70 70 70 71 70 69 70 70 70 71 72 70 70 72 73 74 75 75 75 75 75 75 74 77 74 74 74 75 76 75 73 72 73 74 73 73 71 73 66 65 64 61 66
24 24 26 28 27 27 28 27 28 29 31 30 31 31 44 46 48 49 51 51 51 52 53 54 55 56 57 57 57 57 58 59 59 59 59 60 60 61 61 62 66 66 66 68 68 68 68 69 69 71 71 71 70 71 70 70 70 70 70 69 69 70 70 70 71 71 69 71 73 74 75 75 75 75 75 75 75 75 75 74 74 75 75 75 74 73 73 75 75 74 70 67 69 66 62 61 66
21 22 22 22 25 25 25 26 26 26 27 28 30 30 37 45 47 49 50 50 51 52 52 53 55 55 56 57 57 57 58 58 58 58 59 59 60 61 61 62 64 65 66 67 68 68 68 69 69 71 71 70 70 71 70 70 70 71 70 70 69 71 71 70 70 72 71 70 73 74 75 75 75 74 75 75 75 75 74 74 74 74 75 76 74 73 73 73 73 73 69 67 65 63 65 65 64
20 21 20 20 22 23 24 25 24 25 24 27 31 30 32 43 47 48 49 49 50 51 52 53 54 54 56 56 57 57 57 58 57 57 58 59 60 60 60 62 62 65 66 66 67 67 67 69 69 70 70 70 70 71 71 71 71 71 71 71 70 71 71 71 71 72 72 72 73 74 75 75 75 75 75 75 75 75 74 74 74 74 75 76 75 73 73 72 73 72 70 70 65 59 63 58 67
20 20 20 20 20 22 24 24 24 24 23 26 30 30 33 38 44 46 47 49 49 50 51 51 53 54 56 57 57 57 57 58 57 57 58 59 59 59 60 62 62 63 65 66 66 67 67 68 69 70 70 70 70 72 71 71 72 71 72 72 72 72 72 71 70 70 71 73 73 74 74 74 75 75 75 75 75 74 74 74 74 74 75 75 75 74 73 72 73 72 71 71 65 63 63 57 63
19 20 20 20 21 23 24 25 23 21 19 24 28 30 31 34 42 44 46 47 48 49 49 50 52 53 55 56 56 57 57 58 58 57 58 58 59 59 60 62 62 63 64 65 66 67 67 67 69 70 70 70 70 72 71 71 71 70 70 70 70 69 69 69 68 68 69 71 73 74 74 74 74 75 75 75 75 75 74 74 74 74 75 75 75 74 74 73 73 71 72 70 66 67 62 59 64
19 19 20 20 20 22 24 25 24 21 20 24 29 28 29 34 36 43 44 46 47 49 49 49 51 52 54 55 56 56 57 57 58 58 58 58 59 60 60 61 62 62 63 65 66 66 67 67 69 70 70 71 71 72 71 72 71 70 70 69 69 69 69 69 69 69 69 70 73 73 74 74 74 74 75 75 75 75 75 75 74 75 75 75 76 74 74 73 72 72 72 69 66 70 59 60 65
22 21 20 20 20 20 21 24 22 21 27 22 25 29 29 28 30 41 42 45 47 48 49 50 50 51 52 54 56 56 57 58 57 57 58 58 59 60 61 61 62 62 63 64 66 66 68 68 70 70 70 71 71 72 71 71 70 70 70 69 70 69 69 69 69 69 70 70 71 73 74 74 74 74 74 75 75 75 75 75 75 75 75 75 76 74 74 74 73 72 72 69 68 68 60 61 64
26 26 24 21 21 21 22 23 23 20 19 18 21 26 31 30 30 35 41 43 47 48 49 50 50 51 52 53 55 56 57 58 58 58 57 58 59 60 61 61 62 62 63 64 65 66 68 68 70 70 71 71 71 72 71 71 71 70 70 70 69 70 69 69 70 70 70 71 69 72 73 74 74 74 74 74 74 74 75 75 75 75 75 75 77 75 74 74 73 72 71 69 68 67 63 61 63
27 25 24 26 24 24 24 24 22 21 21 19 21 22 24 27 33 32 40 41 46 47 49 49 50 51 52 52 54 55 56 58 58 58 58 58 59 60 61 62 62 63 64 65 65 66 68 68 70 70 70 71 71 71 71 71 71 71 70 70 69 69 70 70 70 69 69 70 69 70 73 73 73 74 74 74 74 74 75 75 75 75 75 75 76 75 75 74 73 72 71 69 68 66 67 66 64
27 26 23 19 20 25 26 25 22 21 17 17 17 18 19 21 31 30 38 39 45 47 48 49 50 51 52 52 54 55 56 57 58 58 58 58 59 60 61 61 62 63 64 65 65 66 68 68 69 70 70 71 71 71 71 71 71 70 69 69 69 69 70 70 69 69 69 70 69 69 72 73 73 73 74 74 74 74 75 75 75 75 75 76 76 75 75 74 73 72 70 70 69 67 66 65 68
25 22 24 21 19 24 20 25 26 17 16 19 16 15 17 15 26 29 35 40 43 46 47 48 49 51 52 53 54 55 56 57 57 58 57 58 58 60 61 61 62 63 65 65 65 66 68 68 69 69 70 71 71 71 71 70 70 70 70 69 69 69 69 70 69 68 68 70 69 68 71 72 73 73 73 74 74 74 75 75 75 75 75 75 76 75 75 75 74 72 70 70 69 68 68 67 66
24 19 20 19 20 18 15 18 16 16 15 21 15 15 17 16 25 28 29 32 40 46 47 47 49 51 52 52 54 55 56 57 57 58 58 58 58 59 60 61 62 63 65 65 66 66 67 68 68 69 69 70 71 71 70 70 70 70 70 69 69 70 69 70 69 68 68 69 70 68 71 71 72 72 72 73 73 73 74 75 75 75 75 75 76 75 75 75 74 72 70 70 69 69 69 66 65
22 19 17 16 14 14 16 17 18 17 18 15 10 15 13 25 21 21 25 29 35 44 46 47 49 51 52 53 54 55 56 57 58 58 58 58 58 59 60 61 62 63 65 65 66 66 67 68 68 68 69 70 71 71 70 70 70 70 70 70 69 70 70 70 71 69 68 68 71 69 69 71 72 72 72 72 73 73 74 75 75 75 75 75 76 75 75 75 74 73 71 70 70 69 69 68 66
20 19 16 16 15 15 14 15 12 12 18 19 11 10 17 9 21 22 20 24 39 42 45 46 49 51 52 53 54 55 56 57 58 58 58 58 59 59 60 61 62 63 64 65 65 66 67 67 68 68 68 69 70 70 70 70 70 70 70 70 70 70 70 69 70 71 69 69 70 71 69 71 72 72 72 72 73 73 74 75 75 75 75 75 76 75 75 75 74 73 72 70 70 71 69 69 67
19 17 18 19 16 30 15 20 17 20 19 14 14 14 19 14 29 29 24 23 38 43 44 46 47 50 52 53 53 54 55 56 57 58 59 59 59 59 60 61 62 63 64 65 65 66 67 67 68 68 68 68 70 70 70 70 69 70 70 70 70 70 71 70 70 71 72 70 69 71 71 71 72 72 73 73 73 73 73 74 75 75 75 75 75 75 75 75 74 73 73 71 70 71 70 69 68
19 17 15 16 20 16 21 34 25 27 23 12 31 17 16 17 16 13 22 23 27 44 44 44 46 49 52 52 53 54 55 56 57 58 59 60 60 60 60 61 62 63 64 65 66 66 67 67 68 68 68 68 69 70 70 69 69 69 70 70 70 70 70 70 70 70 71 71 70 70 71 71 72 73 73 73 73 73 73 74 74 74 75 75 75 75 75 75 74 73 73 72 70 70 71 70 69
18 16 17 18 18 18 18 13 25 16 14 19 19 10 18 14 13 26 12 15 19 42 45 45 46 50 52 52 53 54 54 56 57 58 59 60 60 60 60 61 62 62 64 65 66 66 67 67 67 68 68 68 68 69 70 70 69 69 70 70 70 70 70 70 70 70 71 72 71 71 71 72 72 73 73 73 73 73 73 75 74 74 75 75 75 75 75 75 75 74 73 73 72 71 70 70 70
16 18 16 16 15 14 21 20 13 13 12 18 18 15 21 19 20 24 12 10 13 32 46 46 47 50 51 52 53 54 55 55 57 58 59 60 60 60 60 60 61 62 64 65 65 66 67 67 67 67 68 68 68 68 69 70 70 70 70 70 70 70 70 70 71 71 71 72 72 71 70 71 72 73 73 73 73 73 73 74 74 74 74 75 75 75 75 75 75 75 73 73 73 72 70 69 70
17 16 15 20 16 19 16 15 23 16 21 14 15 17 14 22 16 16 10 10 10 17 48 47 48 50 51 52 53 54 55 55 56 58 59 59 60 60 60 60 61 62 63 64 65 65 66 67 67 67 68 68 68 68 69 69 70 70 70 70 70 70 71 71 71 71 71 72 72 72 71 70 71 73 73 73 73 73 73 73 74 74 74 74 75 75 75 75 75 74 74 73 73 72 71 70 69
16 13 13 15 19 19 18 21 12 22 25 16 18 14 23 25 19 15 14 12 12 16 48 49 49 50 52 52 53 54 55 55 56 57 58 59 60 60 60 60 61 62 63 64 65 65 66 66 67 67 67 68 68 68 68 69 70 70 70 70 70 70 70 71 71 72 72 72 72 73 72 71 71 72 73 73 73 73 73 73 73 74 74 74 74 75 75 75 75 74 74 74 73 73 72 71 70
16 14 12 13 13 14 11 14 15 19 17 20 19 15 29 25 17 17 16 15 13 14 43 49 49 50 51 52 53 54 55 55 56 57 58 59 60 60 61 61 62 62 63 64 64 65 65 66 67 67 67 68 68 68 69 69 70 70 70 70 70 70 71 71 71 71 72 72 72 73 73 72 70 71 73 73 73 73 73 73 73 73 74 74 74 74 74 75 75 74 74 74 73 73 72 72 71